sat.trackr.live / text

‹ back to catalog

STARLINK-3761

NORAD 52262 · 2022-041B

PAYLOAD ACTIVE UNKNOWN

§ Identity

Operator
Country
US
Launch date
2022-04-21
Launch site
AFETR
Launch vehicle
Mass (kg)
RCS (m²)

Purposes: comms

External: N2YO · Heavens-Above · Gunter

§ Orbital elements

Epoch: 2026-09-19T18:56:30.088896Z

Period
93.85 min
Inclination
53.1604°
Eccentricity
0.0001291
Mean motion
15.34385472 rev/d
Perigee alt
461.9 km
Apogee alt
463.6 km
Semi-major
6,840.9 km
B*
6.7084e-5
RAAN
310.6964°
Arg perigee
87.3827°
Mean anomaly
272.7323°
Rev number
24,375

§ Raw data

STARLINK-37611 52262U 22041B   26262.78923714  .00001890  00000+0  67084-4 0  99912 52262  53.1604 310.6964 0001291  87.3827 272.7323 15.34385472243754

JSON: /api/v1/satellites/52262 · /tle

For live sub-satellite position, see the globe view (requires WebGL).

§ Visibility from observer

Set your observer location to see the next 7 days of passes ≥ 10°. The values pass through the URL so the page stays shareable.

No JS? Fill the form by hand. The geolocation button needs JavaScript.